Find Kosmos-2590

NORAD ID: 64527 Int'l Des: 2025-131 Owner: RESH Country: RU operational
HEOELLIPTICALGSOHEO_ELLIPTICAL

实时位置

正在加载3D地球...

关于 Kosmos-2590

正在加载描述...

即将过境

Passes for default location (London). Set your location on the main map for personalized predictions.

高度历史

Loading altitude history...

两行轨道根数

1 64527U 25131C 26105.75877182 -.00000243 00000-0 00000+0 0 9994
2 64527 0.2177 60.2939 3657276 39.3931 123.2752 1.00252337 2980
Epoch: Apr 15, 2026 • Age: 39 hours

当前状态

高度 21928.6 km
速度 4.33 km/s
星下点 0.01°N, 85.67°E
发射日期 Jun 19, 2025
运行时间 0.8 years
类型 other

技术详情

分类 Payload
质量 200.00 kg
干质量 200.00 kg
总质量 200.00 kg
长度 0.50 m
直径 0.50 m
跨度 0.50 m
形状 Box
制造商 RESH/TSKHM
平台类型 14F166-SS
阶段状态 Docked
所有者/国家 RESH/RU

Most Searched